Location: Allaines
(49.9632°N, 2.9458°E)
Time: 18:44:58
(UTC+00:00)

Nadezhda 1 Rocket - Pass Details

Date: 09 April 2020
Orbit: 940 x 1006 km, 83.0° (Epoch: 22 May)

Event Time Altitude Azimuth Distance (km) Brightness Sun altitude
Rises 19:17:07 0° 178° (S) 3,721 6.8 -7.5°
Reaches altitude 10° 19:19:39 10° 176° (S) 2,772 6.1 -7.9°
Maximum altitude 19:25:59 69° 95° (E) 1,065 4.0 -8.8°
Drops below altitude 10° 19:32:16 10° 14° (NNE) 2,759 6.5 -9.8°
Sets 19:34:47 0° 12° (NNE) 3,703 7.2 -10.1°
